Location: Falniów
(50.3639°N, 19.9642°E)
Time: 13:19:08
(UTC+00:00)

Cosmos 2082 Rocket - Pass Details

Date: 22 April 2026
Orbit: 831 x 853 km, 71.0° (Epoch: 19 May)

Event Time Altitude Azimuth Distance (km) Brightness Sun altitude
Exits shadow 02:41:26 - 281° (W) 3,311 4.8 -8.2°
Reaches altitude 10° 02:44:53 10° 304° (NW) 2,491 4.4 -7.8°
Maximum altitude 02:47:43 14° 335° (NNW) 2,232 4.5 -7.4°
Drops below altitude 10° 02:50:34 10° 5° (N) 2,494 5.1 -7.0°
Sets 02:54:27 0° 30° (NNE) 3,431 6.5 -6.4°
